When you browse on this site, cookies collect data to enhance your experience and personalize the content and advertising you see.
Visit our Privacy Policy to learn more. By continuing to use the site, you agree to this use of cookies and data.
  • In Österreich
  • Länderverzeichnis
  • Für 7 Tage
  • Wassertemperatur
  • Satellitenkarten
  • Wetterkarte
  • News
  • Widgets
  • user-avatar
    Anmelden

    Stündliche Wetter Kitzbühel

    Heute, 21 März, Donnerstag

    Zeit Temperatur Niederschläge Wind Luftdruck Luftfeuchtigkeit
    00:00 -5°C° 0 mm 2 m/S 686 mmHg 80%
    01:00 -5°C° 0 mm 2 m/S 686 mmHg 79%
    02:00 -5°C° 0 mm 2 m/S 686 mmHg 77%
    03:00 -5°C° 0 mm 2 m/S 686 mmHg 74%
    04:00 -5°C° 0 mm 2 m/S 685 mmHg 72%
    05:00 -5°C° 0 mm 2 m/S 686 mmHg 70%
    06:00 -4°C° 0 mm 2 m/S 686 mmHg 68%
    07:00 -3°C° 0 mm 2 m/S 686 mmHg 64%
    08:00 +1°C° 0 mm 2 m/S 686 mmHg 64%
    09:00 +5°C° 0 mm 1 m/S 686 mmHg 65%
    10:00 +8°C° 0 mm 1 m/S 687 mmHg 66%
    11:00 +9°C° 0 mm 1 m/S 686 mmHg 66%
    12:00 +10°C° 0 mm 1 m/S 686 mmHg 65%
    13:00 +11°C° 0 mm 1 m/S 686 mmHg 65%
    14:00 +11°C° 0 mm 1 m/S 686 mmHg 68%
    15:00 +11°C° 0 mm 1 m/S 685 mmHg 71%
    16:00 +11°C° 0 mm 1 m/S 685 mmHg 74%
    17:00 +8°C° 0 mm 1 m/S 685 mmHg 77%
    18:00 +6°C° 0 mm 1 m/S 685 mmHg 80%
    19:00 +4°C° 0 mm 1 m/S 684 mmHg 83%
    20:00 +3°C° 0 mm 1 m/S 685 mmHg 79%
    21:00 +2°C° 0 mm 2 m/S 685 mmHg 76%
    22:00 +1°C° 0 mm 2 m/S 685 mmHg 72%
    23:00 +1°C° 0 mm 2 m/S 685 mmHg 69%

    Morgen, 22 März, Freitag

    Zeit Temperatur Niederschläge Wind Luftdruck Luftfeuchtigkeit
    00:00 +1°C° 0 mm 2 m/S 685 mmHg 66%
    01:00 +1°C° 0 mm 2 m/S 685 mmHg 63%
    02:00 +1°C° 0 mm 2 m/S 685 mmHg 61%
    03:00 +1°C° 0 mm 2 m/S 685 mmHg 60%
    04:00 +1°C° 0 mm 2 m/S 684 mmHg 59%
    05:00 +1°C° 0 mm 2 m/S 685 mmHg 58%
    06:00 +1°C° 0 mm 2 m/S 685 mmHg 58%
    07:00 +2°C° 0 mm 2 m/S 685 mmHg 58%
    08:00 +6°C° 0 mm 1 m/S 685 mmHg 60%
    09:00 +9°C° 0 mm 1 m/S 685 mmHg 61%
    10:00 +12°C° 0 mm 1 m/S 686 mmHg 63%
    11:00 +13°C° 0 mm 1 m/S 685 mmHg 62%
    12:00 +13°C° 0 mm 1 m/S 685 mmHg 61%
    13:00 +14°C° 0 mm 1 m/S 685 mmHg 60%
    14:00 +14°C° 0 mm 1 m/S 685 mmHg 65%
    15:00 +13°C° 0 mm 1 m/S 684 mmHg 69%
    16:00 +13°C° 0 mm 1 m/S 684 mmHg 74%
    17:00 +11°C° 0 mm 1 m/S 684 mmHg 78%
    18:00 +8°C° 0 mm 1 m/S 683 mmHg 82%
    19:00 +6°C° 0 mm 1 m/S 683 mmHg 86%
    20:00 +5°C° 0 mm 2 m/S 683 mmHg 84%
    21:00 +4°C° 0 mm 2 m/S 684 mmHg 82%
    22:00 +4°C° 0 mm 2 m/S 684 mmHg 80%
    23:00 +4°C° 0 mm 2 m/S 684 mmHg 78%

    übermorgen, 23 März, Samstag

    Zeit Temperatur Niederschläge Wind Luftdruck Luftfeuchtigkeit
    00:00 +3°C° 0 mm 2 m/S 684 mmHg 76%
    01:00 +3°C° 0 mm 2 m/S 683 mmHg 74%
    02:00 +3°C° 0 mm 2 m/S 683 mmHg 74%
    03:00 +3°C° 0 mm 2 m/S 683 mmHg 74%
    04:00 +3°C° 0 mm 2 m/S 683 mmHg 73%
    05:00 +3°C° 0 mm 2 m/S 683 mmHg 73%
    06:00 +3°C° 0 mm 2 m/S 683 mmHg 73%
    07:00 +3°C° 0 mm 2 m/S 683 mmHg 73%
    08:00 +7°C° 0 mm 1 m/S 683 mmHg 70%
    09:00 +10°C° 0 mm 1 m/S 684 mmHg 67%
    10:00 +11°C° 0 mm 0 m/S 684 mmHg 64%
    11:00 +12°C° 0 mm 0 m/S 684 mmHg 63%
    12:00 +13°C° 0 mm 0 m/S 684 mmHg 62%
    13:00 +15°C° 0 mm 1 m/S 684 mmHg 60%
    14:00 +14°C° 0 mm 1 m/S 683 mmHg 62%
    15:00 +14°C° 0 mm 1 m/S 683 mmHg 65%
    16:00 +13°C° 0 mm 1 m/S 682 mmHg 67%
    17:00 +11°C° 0 mm 1 m/S 682 mmHg 74%
    18:00 +8°C° 0 mm 0 m/S 682 mmHg 81%
    19:00 +5°C° 0 mm 0 m/S 682 mmHg 89%
    20:00 +5°C° 0 mm 0 m/S 682 mmHg 89%
    21:00 +6°C° 0 mm 1 m/S 682 mmHg 89%
    22:00 +5°C° 0 mm 1 m/S 683 mmHg 88%
    23:00 +5°C° 0 mm 1 m/S 682 mmHg 87%

    24 März, Sonntag

    Zeit Temperatur Niederschläge Wind Luftdruck Luftfeuchtigkeit
    00:00 +5°C° 0 mm 1 m/S 682 mmHg 86%
    01:00 +5°C° 0 mm 1 m/S 682 mmHg 85%
    02:00 +5°C° 0 mm 1 m/S 682 mmHg 83%
    03:00 +5°C° 0 mm 1 m/S 682 mmHg 81%
    04:00 +5°C° 0 mm 1 m/S 681 mmHg 80%
    05:00 +5°C° 0 mm 1 m/S 681 mmHg 78%
    06:00 +5°C° 0 mm 1 m/S 681 mmHg 76%
    07:00 +5°C° 0 mm 1 m/S 681 mmHg 74%
    08:00 +8°C° 0 mm 1 m/S 682 mmHg 70%
    09:00 +10°C° 0 mm 1 m/S 682 mmHg 66%
    10:00 +12°C° 0 mm 0 m/S 682 mmHg 62%
    11:00 +13°C° 0 mm 1 m/S 682 mmHg 62%
    12:00 +14°C° 0 mm 1 m/S 682 mmHg 61%
    13:00 +15°C° 0 mm 1 m/S 682 mmHg 61%
    14:00 +14°C° 0 mm 1 m/S 681 mmHg 66%
    15:00 +13°C° 0 mm 1 m/S 681 mmHg 71%
    16:00 +12°C° 0 mm 2 m/S 680 mmHg 76%
    17:00 +11°C° 0.1 mm 1 m/S 680 mmHg 82%
    18:00 +9°C° 0.1 mm 1 m/S 680 mmHg 89%
    19:00 +8°C° 0.1 mm 1 m/S 680 mmHg 95%
    20:00 +7°C° 0.2 mm 1 m/S 681 mmHg 95%
    21:00 +7°C° 0.2 mm 1 m/S 681 mmHg 96%
    22:00 +7°C° 0.2 mm 1 m/S 681 mmHg 96%
    23:00 +7°C° 0.1 mm 1 m/S 681 mmHg 97%

    25 März, Montag

    Zeit Temperatur Niederschläge Wind Luftdruck Luftfeuchtigkeit
    00:00 +6°C° 0.1 mm 1 m/S 681 mmHg 97%
    01:00 +6°C° 0.1 mm 1 m/S 681 mmHg 98%
    02:00 +6°C° 0.1 mm 1 m/S 681 mmHg 98%
    03:00 +6°C° 0.1 mm 1 m/S 681 mmHg 98%
    04:00 +5°C° 0.1 mm 0 m/S 681 mmHg 98%
    05:00 +5°C° 0.4 mm 1 m/S 681 mmHg 98%
    06:00 +5°C° 0.4 mm 1 m/S 681 mmHg 98%
    07:00 +4°C° 0.4 mm 2 m/S 681 mmHg 97%
    08:00 +4°C° 0.3 mm 2 m/S 681 mmHg 96%
    09:00 +4°C° 0.3 mm 2 m/S 681 mmHg 95%
    10:00 +3°C° 0.3 mm 2 m/S 681 mmHg 94%
    11:00 +4°C° 0.1 mm 2 m/S 681 mmHg 90%
    12:00 +5°C° 0.1 mm 2 m/S 681 mmHg 86%
    13:00 +5°C° 0.1 mm 2 m/S 681 mmHg 82%
    14:00 +5°C° 0.1 mm 2 m/S 681 mmHg 81%
    15:00 +5°C° 0.1 mm 2 m/S 681 mmHg 81%
    16:00 +5°C° 0.1 mm 2 m/S 681 mmHg 80%
    17:00 +4°C° 0.1 mm 2 m/S 681 mmHg 84%
    18:00 +4°C° 0.1 mm 1 m/S 681 mmHg 88%
    19:00 +3°C° 0.1 mm 1 m/S 681 mmHg 91%
    20:00 +3°C° 0.1 mm 1 m/S 682 mmHg 91%
    21:00 +3°C° 0.1 mm 1 m/S 682 mmHg 91%
    22:00 +2°C° 0.1 mm 1 m/S 682 mmHg 91%
    23:00 +2°C° 0.1 mm 1 m/S 683 mmHg 92%

    26 März, Dienstag

    Zeit Temperatur Niederschläge Wind Luftdruck Luftfeuchtigkeit
    00:00 +1°C° 0.1 mm 1 m/S 683 mmHg 92%
    01:00 +1°C° 0.1 mm 1 m/S 683 mmHg 93%
    02:00 +1°C° 0.1 mm 1 m/S 683 mmHg 92%
    03:00 +1°C° 0.1 mm 1 m/S 683 mmHg 92%
    04:00 +1°C° 0.1 mm 1 m/S 682 mmHg 92%
    05:00 +1°C° 0 mm 1 m/S 683 mmHg 91%
    06:00 +1°C° 0 mm 1 m/S 683 mmHg 90%
    07:00 +1°C° 0 mm 1 m/S 683 mmHg 89%
    08:00 +2°C° 0 mm 1 m/S 683 mmHg 81%
    09:00 +2°C° 0 mm 2 m/S 683 mmHg 74%
    10:00 +4°C° 0 mm 2 m/S 683 mmHg 67%
    11:00 +4°C° 0.2 mm 2 m/S 682 mmHg 68%
    12:00 +4°C° 0.2 mm 2 m/S 682 mmHg 69%
    13:00 +4°C° 0.2 mm 2 m/S 682 mmHg 69%
    14:00 +4°C° 0.2 mm 2 m/S 682 mmHg 72%
    15:00 +4°C° 0.2 mm 2 m/S 681 mmHg 75%
    16:00 +4°C° 0.2 mm 2 m/S 681 mmHg 77%
    17:00 +3°C° 0.3 mm 2 m/S 682 mmHg 82%
    18:00 +2°C° 0.3 mm 2 m/S 682 mmHg 87%
    19:00 +3°C° 0.3 mm 1 m/S 682 mmHg 92%
    20:00 +2°C° 0.2 mm 1 m/S 683 mmHg 93%
    21:00 +2°C° 0.2 mm 1 m/S 683 mmHg 94%
    22:00 +2°C° 0.2 mm 1 m/S 683 mmHg 95%
    23:00 +2°C° 0.2 mm 1 m/S 683 mmHg 95%
    Mehr zeigen